GW3496 Weather Reports


time (UTC)temp
F
wind
direction
speed
knots
gust
knots
rain 1hr
in
rain 24hr
in
rain mn
in
humidity
%
barometer
mb
20260508181549 69 204 4.3 13.0 0.00 0.01 0.00 35 1011.6
20260508180041 69 63 7.8 18.2 0.00 0.01 0.00 36 1011.6
20260508174542 68 280 6.1 11.3 0.00 0.01 0.00 38 1011.9
20260508173035 68 207 7.8 14.8 0.00 0.01 0.00 36 1012.0
20260508171544 67 264 7.8 14.8 0.00 0.01 0.00 37 1012.4
20260508170042 66 252 7.8 12.2 0.00 0.01 0.00 38 1012.5
20260508164540 66 17 5.2 14.8 0.00 0.01 0.00 40 1012.7
20260508163038 66 221 7.0 13.0 0.00 0.01 0.00 38 1013.1
20260508161533 65 236 3.5 9.6 0.00 0.01 0.00 40 1013.4
20260508160057 66 206 4.3 10.4 0.00 0.01 0.00 40 1013.6
20260508154538 64 119 4.3 10.4 0.00 0.01 0.00 39 1013.6
20260508153045 64 258 5.2 10.4 0.00 0.01 0.00 42 1013.8
20260508151533 63 199 3.5 7.8 0.00 0.01 0.00 41 1014.0
20260508150037 63 333 0.9 7.8 0.00 0.01 0.00 40 1013.9
20260508144538 62 278 2.6 10.4 0.00 0.01 0.00 38 1014.1
20260508143046 61 269 6.1 10.4 0.00 0.01 0.00 40 1014.2
20260508141547 61 271 1.7 7.0 0.00 0.01 0.00 43 1014.1
20260508140046 60 19 0.0 7.0 0.00 0.01 0.00 45 1014.0
20260508134536 59 340 2.6 7.0 0.00 0.01 0.00 47 1014.3
20260508133047 58 302 0.9 4.3 0.00 0.01 0.00 55 1014.5
20260508131539 57 263 1.7 4.3 0.00 0.01 0.00 57 1014.5
20260508130034 56 308 0.0 4.3 0.00 0.01 0.00 59 1014.4
20260508124538 55 285 1.7 7.0 0.00 0.01 0.00 59 1014.5
20260508123040 54 284 0.0 4.3 0.00 0.01 0.00 64 1014.4
20260508121601 52 263 0.0 1.7 0.00 0.01 0.00 68 1013.8
20260508120039 51 275 0.9 2.6 0.00 0.01 0.00 77 1014.0
20260508114539 50 241 0.0 0.0 0.00 0.01 0.00 82 1013.9
20260508113041 49 241 0.0 0.0 0.00 0.01 0.00 84 1013.7
20260508111550 48 241 0.0 0.0 0.00 0.01 0.00 84 1013.8
20260508110045 47 242 0.0 0.0 0.00 0.01 0.00 84 1013.4
20260508104541 46 241 0.0 0.0 0.00 0.01 0.00 83 1013.2
20260508103041 46 241 0.0 0.0 0.00 0.01 0.00 82 1012.5
20260508101538 46 240 0.0 0.0 0.00 0.01 0.00 82 1012.4
20260508100045 46 199 0.0 0.0 0.00 0.01 0.00 82 1012.2
20260508094542 46 300 0.0 0.0 0.00 0.01 0.00 81 1012.2
20260508093039 47 307 0.9 2.6 0.00 0.01 0.00 81 1012.0
20260508091540 47 281 0.0 3.5 0.00 0.01 0.00 81 1012.2
20260508090045 47 292 2.6 3.5 0.00 0.01 0.00 82 1011.9
20260508084538 48 294 0.9 3.5 0.00 0.01 0.00 82 1012.0
20260508083115 48 261 0.0 0.0 0.00 0.01 0.00 82 1011.8
20260508081541 49 297 0.0 0.0 0.00 0.01 0.00 82 1011.4
20260508080055 49 284 0.0 2.6 0.00 0.01 0.00 81 1011.7
20260508074539 50 292 0.9 4.3 0.00 0.01 0.00 81 1011.5
20260508073056 50 284 2.6 5.2 0.00 0.01 0.00 82 1011.3
20260508071543 50 286 2.6 7.0 0.00 0.01 0.00 85 1011.2
20260508070048 49 17 4.3 7.8 0.00 0.01 0.00 88 1011.0
20260508064601 49 288 3.5 7.8 0.00 0.01 0.00 89 1010.9
20260508063051 50 286 4.3 8.7 0.00 0.01 0.00 89 1010.6
20260508061532 50 300 4.3 9.6 0.00 0.01 0.00 89 1010.3
20260508060027 50 290 5.2 8.7 0.00 0.01 0.00 88 1010.3
20260508054530 50 313 3.5 7.8 0.00 0.03 0.00 88 1010.3
20260508053028 50 281 1.7 3.5 0.00 0.03 0.00 87 1010.3
20260508051528 51 313 0.0 0.0 0.00 0.03 0.00 87 1010.4
20260508050034 51 267 0.0 2.6 0.00 0.03 0.00 86 1010.2
20260508044528 51 286 0.0 3.5 0.00 0.04 0.00 86 1009.7
20260508043032 52 254 0.0 4.3 0.00 0.04 0.00 85 1009.4
20260508041528 52 248 0.9 6.1 0.00 0.04 0.00 85 1009.6
20260508040033 52 254 5.2 7.8 0.00 0.04 0.00 84 1009.4
20260508034529 52 265 2.6 7.0 0.00 0.04 0.04 84 1009.4
20260508033028 53 275 2.6 5.2 0.00 0.04 0.04 83 1009.3
20260508031530 53 248 0.0 0.0 0.00 0.04 0.04 82 1009.3
20260508030028 53 184 0.0 0.0 0.00 0.04 0.04 81 1009.2
20260508024529 54 165 2.6 3.5 0.00 0.04 0.04 81 1009.2
20260508023035 54 190 1.7 4.3 0.00 0.04 0.04 80 1009.3
20260508021528 54 247 1.7 4.3 0.00 0.04 0.04 79 1009.3
20260508020028 54 252 2.6 7.0 0.00 0.04 0.04 79 1009.2
20260508014533 55 236 3.5 7.0 0.00 0.04 0.04 77 1008.8
20260508013031 55 211 0.9 5.2 0.00 0.04 0.04 76 1008.7
20260508011544 55 169 2.6 6.1 0.00 0.04 0.04 75 1008.5
20260508010033 55 243 2.6 4.3 0.00 0.04 0.04 74 1008.5
20260508004535 55 230 1.7 5.2 0.00 0.04 0.04 74 1008.4
20260508003036 56 246 3.5 4.3 0.00 0.04 0.04 72 1008.2
20260508001533 56 237 2.6 5.2 0.00 0.04 0.04 72 1008.3
20260508000034 57 227 2.6 6.1 0.00 0.04 0.04 72 1008.1
20260507234530 57 147 4.3 7.0 0.00 0.04 0.04 71 1008.0
20260507233028 57 215 4.3 8.7 0.00 0.04 0.04 71 1007.7
20260507231529 58 202 6.1 8.7 0.00 0.04 0.04 70 1007.3
20260507230029 59 234 5.2 11.3 0.00 0.04 0.04 69 1007.3
20260507224528 59 189 2.6 8.7 0.00 0.04 0.04 70 1007.4
20260507223028 59 141 5.2 10.4 0.00 0.04 0.04 68 1007.3
20260507221530 60 173 5.2 9.6 0.00 0.04 0.04 68 1007.4
20260507220031 59 190 5.2 10.4 0.00 0.04 0.04 68 1007.2
20260507214531 59 139 3.5 8.7 0.00 0.04 0.04 68 1007.2
20260507213033 58 188 3.5 7.8 0.00 0.04 0.04 68 1007.2
20260507211528 58 150 5.2 11.3 0.00 0.04 0.04 67 1007.4
20260507210031 58 170 4.3 9.6 0.00 0.04 0.04 67 1007.3
20260507204529 57 209 4.3 10.4 0.00 0.04 0.04 67 1007.3
20260507203030 58 162 6.1 11.3 0.00 0.04 0.04 63 1007.4
20260507201531 57 103 5.2 11.3 0.00 0.04 0.04 66 1007.5
20260507200037 57 146 5.2 7.8 0.00 0.04 0.04 65 1007.4
20260507194533 57 165 3.5 8.7 0.00 0.04 0.04 64 1007.6
20260507193033 57 212 4.3 7.8 0.00 0.04 0.04 66 1007.9
20260507191531 56 162 6.1 8.7 0.01 0.04 0.04 65 1007.6
20260507190037 57 141 6.1 10.4 0.01 0.04 0.04 69 1007.9
20260507184538 56 142 1.7 6.1 0.01 0.04 0.04 66 1008.1
20260507183030 56 101 0.9 5.2 0.01 0.04 0.04 60 1008.6